Temp_Advection
nan nan nan nan nan nan nan nan nan nan nan nan nan nan nan nan nan nan nan nan nan nan nan nan nan nan nan nan nan nan nan nan nan nan nan nan nan nan nan nan nan nan nan nan nan nan nan nan nan nan nan nan nan nan nan nan nan nan nan nan nan nan nan nan nan nan nan nan nan
nan -0 0 0 0 0 -0 -0 0 0 0 0 -0 -0 -0 -0 -1 -1 -0 0 0 0 0 0 0 0 -0 -0 0 0 0 -0 -1 -0 -0 0 0 0 -0 -0 -0 -0 -0 -1 -1 -1 -1 -1 -1 -1 -1 -1 -1 -1 0 1 1 0 0 0 1 0 -0 -0 -1 -1 -1 -1 nan
nan -0 0 0 0 0 -0 -0 -0 -0 0 0 -0 -0 -0 -0 -1 -1 -1 -0 0 0 0 0 -0 -0 -0 -0 0 0 0 -0 -1 -1 -1 -0 -0 -0 -0 -0 -0 -0 -0 -0 -1 -1 -1 -1 -1 -1 -1 -1 -1 -1 -1 0 1 1 1 1 1 1 0 -0 -0 -0 -1 -1 nan
nan -0 -0 -0 0 0 -0 -0 -0 -0 -0 -0 -0 -0 -0 -0 -0 -0 -0 -0 0 0 0 0 -0 -0 -0 -0 -0 -0 -0 -0 -0 -1 -1 -1 -0 -0 -0 -0 -0 -0 -0 -0 -0 -0 -0 -0 -0 -0 -0 -1 -1 -1 -1 -0 0 1 1 1 1 0 0 -0 -0 -0 -1 -1 nan
nan -0 -0 -0 0 0 0 0 -0 -0 -0 -0 -0 -0 0 0 -0 -0 -0 -0 0 0 0 0 -0 -0 -0 -0 -1 -1 -1 -0 -0 -0 -1 -1 -1 -0 -0 -0 -0 -0 -0 -0 -0 -0 -0 -0 -0 -0 -0 -1 -0 -0 -0 -1 -1 -0 -0 0 0 -0 -0 -0 -0 -0 -0 -1 nan
nan -0 0 0 0 0 0 0 0 -0 -0 -0 -0 -0 0 0 0 0 0 -0 -0 0 0 0 0 -0 -0 -1 -1 -1 -1 -1 -0 -0 -1 -1 -1 -1 -0 -0 -0 -0 -0 -0 -0 -0 0 0 -0 -0 -0 -1 -1 -0 -0 -0 -1 -1 -1 -1 -0 -0 -1 -1 -0 -0 -0 -0 nan
nan 0 0 0 0 0 0 0 0 0 0 0 -0 -0 -0 0 0 0 -0 -0 -0 -0 -0 -0 -0 -0 -1 -1 -1 -1 -1 -1 -1 -1 -1 -1 -1 -1 -0 -0 -0 -0 -0 -0 -0 -0 0 0 0 -0 -0 -1 -1 -1 -1 -0 -1 -1 -1 -1 -0 -0 -0 -0 -0 -0 -0 -0 nan
nan 0 0 0 0 0 0 -0 -0 -0 -0 -0 -0 -0 -0 -0 -0 -0 -0 -0 -0 -0 -0 -1 -1 -1 -1 -1 -1 -1 -1 -1 -1 -1 -1 -1 -1 -1 -0 -0 -0 -0 -0 -0 -0 -0 0 0 0 -0 -0 -0 -1 -1 -1 -1 -0 -0 -0 -0 -0 0 0 -0 -0 -0 -0 -0 nan
nan 0 0 0 0 0 -0 -0 -0 -0 -0 -0 -0 -0 -0 -0 -0 -1 -1 -1 -1 -1 -1 -1 -1 -1 -1 -0 -0 -0 -0 -1 -1 -1 -1 -1 -1 -1 -1 -0 -0 -0 -0 -0 -0 -0 0 0 1 1 0 0 -0 -1 -1 -0 -0 0 0 0 0 0 0 0 0 0 -0 -0 nan
nan 0 0 0 0 -0 -0 -0 -0 -0 -0 -0 -0 -0 -0 -1 -1 -1 -1 -1 -2 -1 -1 -1 -1 -1 -1 -1 -0 -1 -0 -0 -0 -1 -1 -1 -1 -1 -1 -1 -0 -0 -0 -0 -0 -0 -0 0 1 1 1 1 0 -0 0 1 1 1 1 1 1 0 0 0 0 0 0 0 nan
nan -0 -0 -0 -0 -0 -0 -1 -1 -0 -0 -1 -1 -1 -1 -1 -1 -1 -1 -2 -2 -2 -2 -1 -1 -1 -1 -1 -1 -1 -1 -1 -0 -0 -1 -1 -1 -1 -1 -1 -0 0 0 -0 -0 -0 -0 -0 0 1 1 1 1 1 1 1 2 1 1 1 1 0 0 0 0 0 0 0 nan
nan -0 -0 -0 -0 -0 -1 -1 -1 -1 -1 -1 -1 -1 -1 -1 -2 -2 -2 -2 -2 -2 -2 -1 -1 -1 -1 -1 -1 -1 -1 -1 -1 -0 -0 -0 -1 -1 -1 -1 -0 0 0 0 0 -0 -0 -0 -0 -0 0 1 1 2 2 2 2 2 1 1 1 0 0 0 0 0 0 0 nan
nan -0 -0 -0 -0 -1 -1 -1 -1 -1 -1 -1 -1 -2 -2 -2 -2 -2 -2 -2 -2 -2 -2 -1 -1 -1 -1 -1 -1 -1 -1 -1 -1 -0 -0 -0 0 -0 -1 -1 -1 -1 -1 -0 -0 -0 -0 -0 -0 -0 -0 0 1 2 1 1 1 1 1 1 0 0 0 0 0 0 0 0 nan
nan -0 -1 -1 -0 -0 -1 -1 -1 -1 -2 -2 -2 -2 -2 -2 -2 -2 -1 -1 -1 -1 -1 -1 -1 -1 -1 -1 -1 -1 -1 -0 -0 -0 -0 0 0 1 0 -0 -1 -1 -1 -1 -0 -0 -0 -0 -0 -0 -0 -0 0 1 1 1 1 1 1 0 0 0 0 -0 0 0 0 0 nan
nan -1 -1 -1 -1 -1 -1 -1 -1 -2 -2 -2 -2 -1 -1 -2 -1 -1 -1 -1 -1 -1 -1 -1 -1 -1 -1 -1 -0 -0 -0 -0 -0 -0 -0 -0 0 0 0 -0 -1 -1 -1 -1 -1 -0 -0 -0 -0 -0 -1 -1 -0 0 0 0 0 0 0 0 0 0 -0 -0 -0 -0 0 -0 nan
nan -1 -1 -1 -1 -1 -1 -1 -2 -2 -2 -2 -1 -1 -1 -1 -1 -1 -0 -0 -0 -0 -0 -0 -0 -1 -1 -1 -0 -0 -0 -1 -1 -1 -1 -1 -0 -0 0 -0 -1 -1 -1 -1 -1 -1 -0 -0 -0 -0 -1 -1 -1 -0 -0 -0 -0 0 0 0 0 0 0 -0 -0 -0 -0 -0 nan
nan -1 -1 -1 -2 -2 -2 -2 -1 -1 -1 -1 -1 -1 -1 -1 -0 -0 0 0 0 -0 -0 -0 -0 -0 -0 -1 -0 -0 -1 -1 -1 -1 -1 -1 -1 -1 -0 -0 -1 -1 -1 -1 -1 -1 -1 -0 -0 -0 -0 -0 -0 -0 -0 -0 -0 -0 -0 0 0 0 0 -0 -0 -0 -0 -0 nan
nan -2 -2 -2 -2 -2 -2 -2 -1 -1 -1 -1 -1 -1 -0 -0 -0 -0 -0 0 0 0 -0 -0 -0 0 0 -0 -0 -0 -0 -1 -1 -1 -1 -2 -1 -1 -0 -0 -1 -1 -1 -1 -1 -1 -1 -0 -0 -0 0 0 0 -0 -1 -0 -0 -0 -0 -0 -0 -0 -0 -0 -0 -0 -0 -0 nan
nan -2 -2 -2 -2 -2 -2 -1 -1 -1 -1 -0 -0 -0 -0 -0 -0 -0 -0 -0 0 0 0 -0 -0 0 0 0 -0 -0 -0 -0 -0 -1 -1 -1 -1 -1 -0 -0 -1 -1 -1 -1 -1 -1 -1 -0 -0 -0 0 0 0 -0 -0 -0 -0 -0 -0 -0 -0 -0 -0 -0 -0 0 0 0 nan
nan -2 -2 -2 -2 -2 -1 -1 -1 -1 -0 -0 -0 -0 -0 0 0 -0 -0 -0 -0 0 0 0 0 -0 -0 -0 -0 -0 -0 0 0 0 -0 -0 -0 -0 -0 -0 -0 -1 -1 -1 -1 -1 -1 -0 -0 -0 -0 0 0 -0 -0 -0 -0 -0 -0 0 -0 -0 -0 -0 -0 -0 0 -0 nan
nan -2 -2 -1 -1 -1 -1 -0 -0 -0 -0 -0 -0 -0 -0 -0 -0 0 0 0 -0 -0 0 0 0 -0 -0 -0 -0 0 0 1 1 1 0 0 -0 -0 -0 -0 -0 -1 -1 -1 -1 -1 -0 -0 -0 -0 -0 0 -0 -0 -0 0 -0 -0 -0 -0 0 0 0 -0 -0 -0 -0 -0 nan
nan -1 -1 -1 -0 -0 -0 -0 -0 -0 -0 -0 -0 -0 -0 -0 -0 0 0 0 -0 -0 0 0 0 0 0 0 0 0 1 1 1 1 0 0 -0 -0 0 0 -0 -0 -1 -1 -1 -1 -0 -0 -0 -0 -0 1 0 -0 0 0 -0 -0 -0 -0 -0 -0 -0 -0 -0 -0 -0 -0 nan
nan -1 -0 -0 0 0 -0 -1 -1 -1 -0 -0 -0 -0 -0 -0 -0 -0 -0 -0 0 0 0 0 0 0 1 1 1 1 1 1 1 1 0 0 0 0 0 0 -0 -0 -0 -1 -1 -1 -1 -1 -1 -0 -1 0 0 0 0 -0 -0 -0 -0 -0 -0 -0 -0 -0 -0 -0 -0 -0 nan
nan -0 0 0 0 -0 -0 -1 -1 -1 -0 -0 -0 -0 -0 -0 -0 -0 -0 -0 0 0 0 0 1 1 1 1 1 1 1 1 0 0 0 0 0 0 0 0 0 -0 -0 -0 -1 -1 -1 -1 -1 -1 -1 -0 0 0 -0 -0 -0 -0 -0 -0 -0 -0 0 0 0 0 -0 -0 nan
nan 1 1 0 0 -0 -0 -0 -0 -0 -0 -0 -0 -0 -0 -0 -0 -0 -0 0 0 0 0 0 0 0 1 1 1 1 1 1 0 0 0 0 0 0 0 0 0 0 0 -0 -0 -0 -1 -1 -1 -1 -1 -0 0 -0 -0 -0 -0 -0 -0 0 0 0 0 0 0 -0 -0 -1 nan
nan 1 1 1 0 0 -0 -0 -0 -0 -0 -0 0 -0 -0 -0 -0 0 0 0 0 0 0 0 0 0 0 0 1 1 0 0 0 0 0 0 0 0 0 0 0 0 0 -0 -0 -0 -0 -0 -1 -1 -1 -0 -0 -0 -0 0 0 0 0 0 0 0 0 0 -0 -1 -1 -0 nan
nan 1 1 1 0 0 0 0 0 0 0 0 0 0 0 0 0 0 0 0 0 0 0 1 0 0 0 0 0 0 0 0 1 1 1 1 0 0 0 0 0 0 0 -0 -0 0 0 -0 -0 -1 -1 -0 -1 -0 -0 -0 -0 -0 0 0 0 0 -0 -1 -1 -0 0 0 nan
nan 0 0 0 -0 -0 0 1 1 1 1 1 1 0 0 0 0 1 1 1 1 1 1 1 1 0 0 1 1 1 1 1 1 1 1 1 0 0 0 0 0 0 0 0 0 -0 -0 -0 -0 -0 -1 -1 -1 -0 -0 -0 -0 -0 0 -0 -0 -0 -0 -1 -1 0 0 0 nan
nan 0 -0 -1 -0 -0 0 1 1 1 1 1 0 0 0 1 1 1 0 1 1 1 1 1 1 1 1 1 1 1 1 1 1 1 1 0 0 1 0 0 0 0 0 0 0 -0 -0 -1 -0 -0 -1 -1 -1 -0 -0 -0 -0 0 0 0 -0 -0 -1 -1 -0 1 1 0 nan
nan -0 -1 -1 -0 -0 0 0 0 0 0 0 0 0 1 1 1 0 0 1 1 1 1 1 1 1 1 1 1 0 1 0 1 1 1 0 0 0 0 0 0 -0 -0 -0 -0 -0 -1 -1 -0 -1 -1 -1 -0 -0 -0 -0 0 0 0 -0 -0 -1 -1 -0 1 1 0 0 nan
nan -0 -0 -0 -0 0 0 -0 0 0 0 0 0 0 1 0 0 0 1 1 1 1 1 1 1 1 1 0 0 0 0 0 0 0 0 1 1 0 0 0 0 -0 -0 -0 -0 -1 -1 -0 -1 -1 -1 -0 -0 -0 -0 0 0 0 -0 -0 -1 -1 -1 0 1 0 0 0 nan
nan -0 0 0 0 0 0 0 0 0 0 0 0 0 0 0 0 1 1 1 1 1 1 0 0 0 -0 -0 -0 -0 -0 -0 0 0 1 1 0 0 -0 -0 0 -0 -0 -0 -1 -0 -0 -0 -1 -1 -0 -0 -0 -0 0 1 0 -0 -0 -0 -0 -0 -0 0 1 0 0 -0 nan
nan 0 0 0 0 0 0 0 0 0 0 0 0 1 0 0 0 0 0 0 0 0 0 -0 -0 -0 -0 -0 -0 -0 -0 -0 0 0 1 1 0 0 0 -0 -0 -0 -0 -0 -1 0 0 -1 -1 -0 0 -0 -0 0 0 1 0 -0 -0 -0 -0 0 0 0 0 0 -0 -0 nan
nan -0 -0 -0 -0 -0 0 0 0 0 0 0 0 0 0 0 0 0 0 0 -0 -0 -0 -0 0 0 -0 -0 -0 -0 -0 -0 0 0 0 0 0 0 0 0 0 0 0 0 1 1 -0 -1 -1 -0 -0 -0 -0 0 0 0 0 -0 -0 -0 -0 0 0 0 0 0 -0 -0 nan
nan -0 -0 -0 -0 0 0 0 1 0 0 0 0 0 0 0 0 0 -0 -0 -0 -0 -0 0 1 1 0 0 0 0 0 0 0 0 0 0 0 0 0 0 0 1 1 1 2 1 -1 -1 -0 -0 -0 -0 -0 0 0 0 0 -0 -0 -0 -0 -0 0 1 1 0 0 -0 nan
nan -0 -0 -0 0 1 1 1 1 0 0 0 -0 -0 -0 0 0 0 0 -0 -0 0 0 0 1 1 1 1 0 0 1 1 0 0 0 0 0 0 0 1 1 1 1 1 1 -0 -1 -1 -0 -0 -0 -0 -0 0 0 0 -0 -0 -0 -0 -0 0 0 0 0 0 0 -0 nan
nan -0 0 0 1 1 1 1 0 0 0 0 0 -0 -0 0 0 0 0 0 0 0 0 1 0 0 0 0 0 1 1 1 0 0 0 0 0 0 0 1 1 0 0 0 -1 -1 -1 -0 -0 -0 -1 -1 -0 -0 -0 -0 -0 -0 -0 -0 -0 0 0 0 0 0 -0 -0 nan
nan 0 1 1 1 1 0 0 -0 -0 0 0 0 0 0 0 0 0 0 0 0 0 0 1 0 -0 0 0 1 1 1 0 0 0 0 0 0 0 1 1 0 -0 -0 -1 -1 -1 -1 -0 -1 -1 -1 -1 -1 -1 -1 -0 -0 -0 -0 -0 -0 -0 -0 -0 -0 -0 -1 -1 nan
nan 1 1 1 1 0 -0 -0 -0 -0 0 0 0 0 0 1 1 0 0 1 0 0 0 0 0 0 0 0 1 1 0 0 0 0 0 0 0 1 1 0 -0 -0 -1 -1 -0 -0 -0 -1 -1 -1 -1 -1 -1 -1 -1 -1 -1 -0 -0 -0 -0 -0 -0 -0 -0 -1 -1 -1 nan
nan 1 1 0 -0 -0 -0 -0 -0 0 0 0 0 1 1 1 1 1 1 1 0 0 0 0 0 0 0 0 1 0 0 -0 0 0 0 1 1 1 1 0 -0 -1 -1 -1 -0 -0 -0 -1 -0 -1 -1 -1 -1 -1 -1 -1 -1 -1 -0 -1 -1 -1 -1 -0 -0 -0 -0 -1 nan
nan nan nan nan nan nan nan nan nan nan nan nan nan nan nan nan nan nan nan nan nan nan nan nan nan nan nan nan nan nan nan nan nan nan nan nan nan nan nan nan nan nan nan nan nan nan nan nan nan nan nan nan nan nan nan nan nan nan nan nan nan nan nan nan nan nan nan nan nan
Wind_Speed
28 27 27 26 26 26 26 26 25 26 26 26 27 27 27 27 27 27 27 27 28 28 28 28 28 28 27 27 28 28 29 29 29 29 29 29 28 27 27 26 25 24 23 22 21 21 21 21 21 21 22 21 21 20 19 18 16 16 16 17 18 20 22 24 26 26 25 23 20
28 27 26 26 25 25 25 25 25 25 25 26 26 26 26 27 27 27 27 27 27 27 28 28 27 27 27 27 27 28 29 30 30 30 29 28 27 26 26 25 24 23 23 23 23 23 23 23 24 24 23 22 22 21 19 17 16 16 17 18 19 21 22 24 25 25 24 21 18
28 27 26 25 25 25 25 25 25 25 25 25 25 26 26 26 27 27 27 27 27 27 27 27 27 26 27 27 28 28 29 30 31 30 29 28 27 26 25 24 24 23 23 24 24 25 25 25 25 25 24 23 23 22 20 18 17 18 20 21 22 23 24 25 26 25 23 20 17
27 27 26 25 25 25 25 25 25 25 25 25 25 25 26 26 26 26 27 27 27 26 26 26 26 26 26 27 28 29 30 31 31 30 29 28 27 25 24 24 24 24 24 25 26 26 26 26 25 25 24 24 23 23 22 21 20 21 23 24 25 26 27 27 26 25 22 20 17
27 27 26 25 25 25 24 24 25 25 25 25 25 25 25 26 26 26 26 27 27 26 26 25 25 26 26 27 28 29 30 31 31 30 29 28 27 25 24 24 24 24 25 26 26 26 26 26 25 25 24 23 23 23 23 23 24 26 27 28 28 28 28 28 26 24 21 19 16
27 26 26 25 25 25 24 24 25 25 25 25 25 25 26 26 26 26 26 26 26 26 25 25 25 25 26 27 28 29 30 31 31 31 30 28 27 25 24 24 24 24 25 26 27 26 26 25 25 25 24 23 23 23 24 26 28 30 31 31 30 29 28 26 24 22 19 17 15
27 26 26 25 25 25 25 25 25 25 25 26 26 26 26 26 26 26 26 26 26 26 26 25 25 25 26 27 28 28 29 30 31 31 30 29 27 26 25 24 24 25 26 27 27 26 25 25 25 25 24 24 25 26 27 29 31 33 33 33 31 29 27 25 21 19 17 15 14
26 26 26 26 25 26 26 26 26 27 27 27 27 27 27 27 27 27 27 27 27 26 26 26 25 26 26 27 27 28 29 30 31 31 30 29 27 26 25 25 25 26 26 27 26 26 25 25 25 25 25 25 27 29 31 33 34 34 34 34 31 28 25 22 19 16 14 13 13
26 26 26 26 26 26 27 27 27 28 28 28 28 28 28 28 28 28 28 28 27 27 26 26 26 26 26 26 27 27 28 29 30 31 30 29 28 27 26 25 26 26 27 27 26 25 25 24 24 24 25 27 29 32 34 35 35 35 34 33 30 27 23 19 16 13 12 12 13
27 27 27 27 27 27 28 28 28 29 29 29 29 29 29 28 28 28 28 28 27 27 26 26 26 26 27 27 27 27 28 29 30 30 30 29 28 27 27 26 27 27 27 27 26 24 24 24 24 24 26 28 31 34 35 35 35 34 33 30 27 24 20 15 12 10 10 12 14
27 27 27 28 28 28 29 29 29 29 29 29 29 29 29 28 28 28 27 27 27 27 27 26 26 27 27 27 28 28 28 28 29 29 30 30 29 28 28 27 27 27 27 26 25 24 23 23 23 25 27 31 34 36 36 35 34 32 30 26 23 19 15 11 9 8 10 12 14
27 27 27 27 28 28 29 29 29 29 29 29 29 29 29 28 28 27 27 28 28 28 28 27 27 27 28 28 28 28 28 28 28 29 29 30 30 29 29 28 28 27 27 26 24 23 22 22 23 26 29 33 35 36 35 34 31 29 26 22 18 14 11 8 7 8 10 12 14
26 27 27 27 28 28 29 29 29 30 30 29 29 29 28 28 28 28 29 29 29 29 29 29 28 28 28 29 29 29 28 27 27 28 29 30 30 30 30 29 28 28 27 25 23 22 22 22 23 26 30 34 36 35 34 31 28 25 22 19 15 10 7 6 7 9 11 12 14
26 26 27 27 28 28 29 29 30 30 30 30 29 29 29 29 29 30 30 30 30 31 31 31 30 30 29 29 29 28 27 26 26 27 29 30 31 31 31 30 29 28 26 24 22 21 20 21 22 26 30 34 35 34 33 30 26 22 18 15 11 8 6 6 8 10 11 13 15
26 26 27 27 28 29 30 30 31 30 30 30 29 29 30 30 31 32 32 32 32 32 32 32 32 31 30 29 28 27 26 25 25 27 29 30 31 31 31 30 29 27 25 23 21 19 18 19 21 25 30 34 34 33 32 29 24 19 15 11 9 7 6 7 9 11 13 15 17
27 27 28 29 30 30 31 31 31 31 30 30 30 30 31 32 32 33 32 32 32 33 32 32 32 31 30 29 27 26 25 25 25 27 29 30 31 31 31 30 29 27 25 22 20 18 17 18 21 25 30 33 34 32 30 28 24 19 13 10 8 7 7 8 10 12 14 16 18
29 29 30 31 32 32 33 32 31 31 30 30 31 31 32 33 33 33 32 32 32 32 32 32 31 31 30 29 28 27 26 25 26 27 29 30 30 30 30 29 28 26 24 22 19 18 17 17 21 25 30 33 33 30 27 26 22 17 13 11 9 8 7 8 10 12 14 16 17
31 32 32 33 34 34 34 33 31 31 30 31 31 32 33 33 33 32 32 31 31 31 31 31 31 30 30 30 29 28 27 27 27 28 29 29 29 29 28 28 26 25 23 21 18 17 17 18 21 27 32 34 34 29 24 21 17 13 12 13 11 9 8 9 10 12 13 15 15
33 33 34 34 35 34 34 32 31 31 31 31 32 32 32 32 32 32 32 31 30 30 31 31 31 30 30 30 30 29 28 28 28 28 28 27 27 27 26 26 25 23 21 19 17 16 16 18 22 28 33 35 34 29 22 15 11 10 11 13 13 12 11 11 11 13 14 15 15
34 34 34 34 34 34 33 32 31 30 30 31 31 31 31 31 31 31 31 30 30 29 30 30 30 30 30 30 30 30 29 29 28 28 27 27 26 26 25 25 24 22 20 18 16 15 16 18 23 29 34 35 33 27 20 12 8 9 11 12 13 13 12 12 13 14 14 14 13
34 34 34 33 33 33 32 30 29 29 30 30 30 30 30 30 29 29 29 29 29 29 29 30 30 30 30 30 30 30 30 29 29 28 27 26 25 24 24 23 22 20 19 16 15 15 15 18 24 30 34 34 31 25 16 9 6 8 10 12 12 12 12 13 14 14 14 13 12
33 33 33 32 32 31 30 29 28 28 28 28 28 28 28 28 28 28 28 29 29 29 30 30 30 30 30 30 30 30 30 30 30 29 28 26 24 23 22 21 20 19 17 15 14 14 15 19 25 31 34 33 28 21 14 6 5 7 10 12 12 12 12 13 13 12 11 11 10
33 32 32 31 31 29 28 27 27 27 27 27 27 27 27 28 28 28 29 30 30 30 30 30 30 30 30 30 30 30 31 31 31 30 27 25 23 22 20 19 19 18 17 14 12 12 15 21 27 32 33 31 25 19 12 5 5 8 11 12 13 13 12 11 10 8 8 8 7
32 32 31 30 29 28 27 26 26 26 26 26 26 27 27 28 28 29 30 31 31 30 30 30 30 30 30 30 30 31 32 33 33 31 28 25 23 21 20 20 19 18 16 14 11 12 17 23 28 32 33 28 22 17 12 7 7 10 13 14 14 13 11 8 5 4 5 6 8
32 31 30 29 28 26 26 26 26 26 26 26 26 27 27 28 29 30 31 31 31 30 30 30 30 30 30 31 32 32 33 34 34 32 29 26 23 22 21 21 20 19 16 14 13 15 20 24 27 31 32 27 20 15 12 8 9 11 14 15 15 14 12 11 10 9 10 12 13
30 29 28 27 26 26 26 26 25 25 25 26 27 27 28 29 30 31 31 31 31 30 30 30 30 30 31 33 34 35 35 35 34 32 30 27 25 24 24 23 22 19 17 15 16 18 22 25 27 32 33 27 19 14 12 10 10 12 14 15 15 13 14 17 17 16 15 15 15
29 28 26 26 25 26 26 26 26 26 26 27 27 28 29 30 30 31 31 31 30 30 30 30 31 31 32 35 36 37 37 36 34 32 30 28 27 27 26 25 22 19 17 17 19 20 22 25 28 33 34 26 19 15 13 11 11 12 14 16 14 13 15 19 19 17 15 15 15
27 26 26 26 27 27 27 27 27 27 27 28 28 29 29 30 31 31 31 31 30 30 30 31 32 32 34 37 38 39 39 37 34 32 30 28 28 28 27 25 22 19 17 18 20 21 22 25 29 33 32 24 19 16 14 12 12 14 15 16 14 14 17 20 19 17 16 16 16
26 27 27 28 29 29 29 28 28 28 28 28 29 29 30 31 31 31 31 30 30 30 31 32 33 35 36 39 40 40 39 37 34 32 30 29 29 28 27 24 22 18 17 19 21 23 24 28 30 30 28 22 20 17 15 14 15 16 16 15 15 18 21 22 20 18 17 17 17
27 28 29 30 30 30 30 30 29 29 29 29 29 30 30 31 31 31 30 30 30 31 31 33 35 37 38 39 39 39 39 37 34 31 29 29 29 28 27 24 22 19 18 21 23 25 28 32 30 26 23 20 19 18 17 16 17 16 16 17 20 23 25 23 21 19 18 18 18
28 29 30 30 30 30 30 30 30 29 29 30 30 30 30 31 31 30 30 30 30 30 31 33 35 37 38 38 38 37 37 37 34 32 29 28 28 28 26 24 22 20 20 23 24 28 32 32 26 21 19 18 18 18 18 18 17 17 18 21 24 26 25 23 22 20 20 19 20
29 30 30 31 31 31 31 31 31 31 30 30 30 30 30 30 30 29 29 29 30 30 31 33 35 36 37 37 36 35 35 36 34 31 29 28 28 28 27 25 23 21 21 23 26 31 33 29 21 17 17 17 18 18 18 18 17 18 20 23 25 26 25 23 22 22 21 21 21
29 30 30 31 31 31 31 31 31 31 31 31 31 30 30 29 29 28 28 29 29 30 31 33 34 35 35 35 35 34 34 34 33 30 28 27 28 28 27 26 24 23 23 25 29 33 32 23 19 17 17 17 18 18 18 18 18 19 22 24 25 25 25 24 24 23 22 22 22
29 30 30 31 31 31 31 31 31 32 32 32 31 30 29 29 28 28 29 29 29 30 31 33 34 34 34 34 34 33 33 33 31 28 27 27 27 28 28 27 25 24 25 28 33 34 29 22 21 21 20 19 18 18 18 17 18 19 21 23 25 26 27 26 26 25 24 22 22
29 30 31 31 31 31 31 32 32 32 32 32 31 30 29 28 28 28 29 29 29 30 32 34 34 34 34 34 33 32 32 31 29 27 26 27 27 28 28 27 26 28 30 32 36 34 28 25 25 25 24 22 20 19 18 17 17 18 19 21 24 27 28 29 28 28 27 25 24
29 30 31 32 32 32 32 32 32 32 32 31 31 30 29 28 28 28 28 29 30 31 33 34 35 34 34 34 33 32 31 29 27 26 25 26 26 27 28 28 29 32 34 35 39 36 30 28 29 29 27 25 22 20 18 17 17 17 18 19 22 25 27 29 30 30 30 30 28
29 31 32 32 32 33 32 32 32 31 31 31 30 29 28 28 28 28 29 30 31 32 33 34 33 33 33 33 32 31 29 27 25 25 25 25 26 27 28 28 31 34 37 37 40 38 34 31 31 31 30 28 25 23 20 18 17 17 18 19 20 21 23 25 27 29 31 32 31
30 31 32 33 33 32 32 32 31 31 30 30 29 29 28 27 28 29 30 31 32 33 33 32 31 31 31 31 30 29 27 25 24 24 24 24 25 26 27 28 31 34 36 37 39 39 38 34 33 33 32 31 29 26 23 20 19 18 18 18 18 18 19 20 22 25 27 30 31
30 31 32 32 32 32 31 31 30 30 30 29 29 28 27 27 28 29 30 31 32 33 33 31 30 29 30 29 28 27 26 24 23 23 23 23 24 25 26 28 31 32 33 35 37 38 38 36 34 33 33 32 31 29 26 23 20 19 18 18 18 18 18 18 19 21 23 26 28
31 32 32 32 31 31 30 30 29 29 29 28 28 27 27 27 28 29 31 31 32 33 33 30 28 28 28 27 26 26 24 23 22 22 22 22 23 24 25 28 30 31 32 33 34 35 35 36 34 33 33 33 32 31 28 25 22 20 19 18 19 19 19 19 19 20 21 23 26
31 31 31 31 30 30 29 29 29 28 28 27 27 26 26 27 28 29 30 31 32 33 32 29 27 28 27 26 24 24 23 22 22 22 22 22 23 24 25 27 29 30 31 31 32 32 33 33 33 32 31 32 33 32 30 27 24 21 19 19 19 20 20 19 19 19 21 22 24
Wind_Direction
343 344 344 345 345 344 344 344 344 344 343 342 341 341 341 341 341 341 341 341 339 338 337 336 337 337 338 339 340 340 340 341 342 342 342 340 340 339 339 340 341 342 342 341 340 339 338 336 333 330 327 325 325 325 326 327 328 328 329 329 329 329 325 319 314 312 311 311 310
343 343 344 344 344 344 344 344 344 344 344 343 342 342 342 341 341 341 341 340 339 338 337 336 337 337 338 340 341 341 342 343 343 342 342 341 340 340 341 341 342 342 342 342 341 340 338 336 333 331 328 327 327 327 329 330 330 329 329 330 330 328 323 316 313 313 315 316 315
342 343 343 344 344 344 344 344 344 344 344 343 343 343 342 342 342 341 341 340 339 338 337 336 337 338 339 340 341 343 344 344 343 342 341 340 341 341 341 341 342 342 343 342 341 339 338 336 333 331 329 328 329 330 332 332 331 330 329 328 328 325 321 317 317 318 319 318 317
342 342 343 343 344 344 344 343 343 343 343 343 343 343 343 343 343 342 341 340 339 339 338 337 337 338 340 341 342 344 345 344 343 341 340 340 341 341 341 341 341 342 343 343 341 339 337 336 334 332 331 331 331 332 333 333 332 330 328 327 325 323 321 320 320 320 319 317 316
340 341 341 342 342 342 342 342 342 342 342 342 342 343 343 343 343 342 342 341 340 339 339 338 339 340 340 341 343 345 345 344 342 341 340 340 340 340 340 340 341 342 342 342 340 338 337 336 335 333 333 332 332 332 332 333 332 331 329 327 325 324 322 321 320 319 317 315 314
338 339 339 340 340 340 340 340 340 340 341 341 341 342 342 342 342 342 341 341 340 340 340 340 341 341 341 343 344 345 344 343 342 341 341 340 339 338 338 339 340 342 342 341 339 337 337 336 335 334 334 333 332 332 332 332 331 329 328 327 326 324 323 321 319 317 315 313 313
336 336 337 337 338 338 338 338 338 339 339 339 339 340 340 340 340 340 339 339 339 339 340 341 342 342 343 344 344 343 343 342 342 341 340 339 338 337 337 338 340 341 341 339 338 337 337 337 335 333 332 332 330 330 330 330 329 328 328 327 326 325 323 321 318 315 313 312 311
334 334 335 335 335 336 336 336 336 337 337 337 338 338 338 337 337 337 337 337 337 339 340 341 342 342 343 343 342 342 342 342 341 341 340 339 337 337 337 338 339 339 339 338 337 337 337 336 334 332 331 330 328 328 329 330 329 329 328 328 326 325 322 319 316 313 311 310 311
333 333 333 334 334 334 335 335 335 336 336 336 337 337 337 336 336 336 336 336 336 337 339 340 341 341 341 341 340 341 341 341 341 340 339 339 338 337 337 337 338 338 338 338 337 336 336 335 333 330 329 328 327 328 330 331 331 330 329 328 327 325 322 319 315 313 312 312 315
333 332 333 333 333 334 334 335 335 335 336 336 336 337 337 336 336 336 337 336 336 337 338 339 339 339 338 338 338 339 341 341 341 340 339 339 338 337 337 337 337 337 336 336 336 336 335 334 332 331 330 330 330 331 333 334 333 331 330 329 327 326 323 319 317 317 318 319 321
333 333 333 334 334 335 336 336 336 337 337 338 338 338 338 339 339 340 340 340 340 339 340 340 339 337 336 336 336 337 338 339 340 340 340 340 339 338 337 337 336 335 334 335 335 335 334 334 334 334 335 335 336 336 337 337 336 334 332 331 329 325 321 320 324 327 327 326 325
336 335 335 336 337 337 338 338 338 339 340 341 341 341 342 343 344 345 346 345 344 343 342 342 340 338 336 334 334 334 335 337 339 340 340 340 339 339 337 336 335 334 333 333 334 334 334 335 337 338 340 341 342 342 342 342 341 338 336 333 328 323 319 325 336 337 332 327 327
339 339 339 340 341 341 341 341 341 342 343 344 345 346 347 348 351 351 351 348 347 345 345 344 342 339 336 334 332 332 333 335 337 339 340 339 339 338 336 335 334 333 332 332 332 333 334 336 339 341 343 345 347 347 347 347 345 342 338 332 326 320 323 337 342 337 331 327 330
343 344 344 344 345 345 345 345 345 346 347 348 349 350 351 352 354 354 352 349 347 346 345 344 343 340 337 334 332 331 331 334 337 339 339 338 337 336 335 334 332 332 331 330 330 330 332 337 341 343 345 348 350 351 351 351 349 346 341 333 326 324 332 340 338 332 329 331 335
347 347 347 347 348 348 348 348 349 349 350 351 352 353 354 354 354 353 351 348 346 345 344 343 342 340 339 336 334 332 332 335 338 339 339 337 336 334 333 332 331 330 329 328 326 327 330 336 340 343 346 350 352 353 353 352 353 351 346 336 328 327 331 331 330 330 332 336 336
350 350 350 350 350 350 351 351 351 351 352 352 354 355 355 354 353 351 348 346 345 344 343 342 341 341 340 339 337 336 335 337 339 340 339 337 334 332 330 330 330 329 327 325 322 323 328 335 340 342 345 350 353 354 353 352 354 355 350 337 325 320 321 325 327 332 336 337 334
353 353 352 352 352 352 353 353 352 352 353 354 355 356 355 354 351 349 347 345 345 343 342 343 343 342 342 342 342 341 339 338 339 340 339 336 332 329 328 327 328 327 326 323 320 320 324 333 339 342 346 350 353 354 353 352 355 356 349 337 327 321 325 330 332 335 336 333 329
355 354 354 353 353 353 353 352 352 353 353 354 355 355 354 352 349 348 347 346 346 344 343 344 345 345 345 346 346 345 342 339 339 338 335 332 329 326 325 326 326 326 325 322 318 317 320 329 338 344 349 352 353 353 352 351 352 348 340 341 343 347 348 344 337 334 330 326 324
356 355 354 354 353 352 351 351 352 353 354 355 355 354 352 350 349 348 348 348 347 346 345 346 346 347 348 349 348 347 344 341 339 336 332 329 325 324 324 325 326 326 325 322 317 313 316 326 338 347 351 352 352 352 350 347 338 324 323 338 352 359 355 343 334 328 324 321 320
356 355 354 352 351 350 350 350 352 353 354 354 353 352 350 349 349 349 348 348 348 348 348 348 348 349 350 350 350 348 347 345 342 338 334 330 327 325 325 326 327 327 326 322 315 309 312 324 340 349 351 350 350 350 351 346 326 308 310 323 337 343 340 332 326 321 318 317 316
355 353 352 350 349 348 348 350 352 353 354 353 352 351 350 350 350 350 350 350 350 351 351 351 351 351 351 350 350 349 349 348 347 344 341 336 332 329 328 329 330 330 328 323 314 306 310 327 343 348 348 346 347 350 355 355 330 309 308 312 319 323 325 322 318 315 312 312 310
352 351 350 348 347 347 348 351 353 354 354 353 352 352 351 351 351 351 352 353 353 353 353 353 353 352 352 351 350 350 351 351 351 350 347 342 338 334 332 332 333 333 332 327 316 307 313 333 345 345 342 341 345 352 1 9 339 320 317 318 319 321 321 318 313 309 307 306 307
350 349 348 347 346 347 350 353 354 354 354 353 353 353 353 353 353 353 354 355 356 355 354 354 354 354 353 353 352 352 352 353 353 352 350 347 343 339 338 338 338 339 338 335 322 315 324 338 341 339 337 339 346 357 8 21 354 340 337 334 333 331 329 324 314 307 306 311 324
348 347 347 347 347 350 353 355 356 355 355 355 355 354 354 354 354 355 356 356 357 357 356 356 356 356 356 355 354 353 353 354 354 353 352 350 347 345 343 344 344 345 345 342 331 328 333 336 334 332 333 338 349 1 12 23 6 356 351 347 344 344 347 351 347 343 350 4 26
346 346 347 348 350 353 356 357 357 356 356 356 356 356 356 356 355 355 356 357 358 358 358 358 358 357 356 355 354 354 354 355 354 354 354 352 350 348 348 348 349 350 352 351 345 337 333 331 329 330 334 341 352 4 10 10 5 1 357 353 351 358 16 40 54 55 49 48 51
346 347 349 351 354 357 359 360 359 358 358 358 358 358 357 357 356 356 356 357 358 359 359 359 359 356 354 353 353 353 354 355 355 355 355 354 352 350 350 351 352 354 358 1 356 343 332 330 329 333 338 346 359 7 4 356 353 354 355 354 354 8 34 52 60 61 57 52 49
349 351 353 356 359 2 2 2 1 0 0 360 359 359 358 358 357 357 357 358 358 359 360 360 357 353 351 351 351 351 352 355 356 357 356 355 352 351 352 353 355 357 2 5 358 347 337 333 332 336 343 354 5 8 1 352 348 350 353 354 356 15 42 55 60 59 52 45 41
354 357 0 3 5 5 4 4 3 2 1 1 1 0 359 358 358 357 357 358 359 359 359 358 355 351 350 350 350 350 351 354 357 357 357 355 353 353 354 356 357 360 3 2 354 347 342 339 336 340 348 2 10 9 2 357 356 357 358 358 5 29 51 60 62 57 48 43 41
1 4 6 7 7 6 5 4 4 3 2 2 2 1 0 359 358 358 358 359 359 358 357 355 352 350 350 351 351 351 352 355 357 358 357 355 354 355 357 357 357 359 1 358 352 347 344 341 338 343 353 6 9 8 8 8 9 10 11 15 32 51 61 65 63 56 49 45 43
7 8 9 9 8 6 5 5 4 3 3 3 2 1 0 359 359 359 359 359 359 357 355 353 352 352 352 353 354 354 354 356 358 358 357 356 356 357 359 357 356 357 359 356 351 347 344 341 342 350 1 9 9 11 15 18 21 24 31 43 56 64 66 66 61 55 51 48 47
10 10 11 10 8 7 5 5 4 4 4 3 2 1 0 360 359 359 359 360 359 357 356 355 355 355 355 357 357 357 358 358 359 359 358 358 359 360 359 357 356 357 358 356 351 347 344 344 351 2 11 11 14 18 24 28 33 41 51 61 68 71 70 65 60 56 53 50 50
12 12 12 11 9 7 6 5 5 4 4 2 1 1 0 360 359 360 1 1 360 358 356 356 356 356 358 359 359 359 359 359 359 360 1 1 1 1 359 357 356 357 357 354 349 346 347 354 9 20 19 16 21 27 33 39 47 54 62 68 73 75 73 69 63 58 54 52 51
13 14 13 12 10 8 6 5 4 3 3 2 1 0 360 360 360 1 1 1 360 358 355 354 354 355 357 359 359 360 360 360 1 2 4 4 3 2 0 358 357 355 353 350 348 349 356 14 30 31 26 25 29 35 42 50 57 62 64 68 72 74 74 71 67 61 56 53 51
15 15 14 13 9 6 4 3 2 1 1 1 1 1 0 359 359 358 358 358 358 356 354 352 352 355 358 359 1 1 0 1 3 5 6 5 4 2 1 359 357 354 353 352 351 358 12 34 36 32 30 32 37 43 50 58 63 64 63 62 64 67 69 70 68 64 59 55 51
15 14 13 10 7 4 2 1 0 360 359 359 359 0 360 358 356 356 355 355 355 354 353 352 353 357 0 2 3 3 2 3 5 7 7 6 4 3 2 0 359 358 357 357 360 11 28 39 34 31 32 36 40 46 52 59 63 63 60 56 55 57 61 63 64 62 59 56 52
15 13 10 7 4 2 1 1 0 359 358 358 358 358 357 356 355 355 355 354 353 352 352 353 356 359 2 4 5 4 4 5 8 9 8 6 6 5 4 3 4 5 6 5 10 21 35 36 31 29 31 35 39 44 49 54 56 55 52 49 49 52 55 58 59 57 55 53 51
14 11 7 4 2 2 2 1 1 360 359 358 357 356 355 353 354 355 355 354 352 351 352 354 359 3 5 6 5 5 7 10 11 10 9 9 10 9 8 8 11 13 13 11 15 23 32 33 28 26 27 31 35 40 43 45 46 45 44 44 46 50 54 57 58 58 55 52 49
13 10 6 3 2 2 3 2 1 360 359 358 356 355 354 353 355 356 357 355 353 351 352 355 2 6 7 7 7 8 11 14 14 12 12 13 15 14 13 13 15 16 16 14 15 20 26 29 27 24 23 26 31 35 37 38 38 39 40 41 44 48 52 55 58 58 57 53 49
12 9 6 5 5 4 3 1 0 359 358 357 355 354 354 355 357 358 358 356 355 353 352 356 5 9 10 10 10 11 14 16 16 17 18 20 20 18 16 15 16 17 16 14 13 16 21 26 26 23 21 22 26 30 33 34 34 35 38 41 45 48 51 53 54 55 55 53 49
11 9 8 7 6 4 2 0 359 358 357 357 355 355 356 359 360 359 358 357 356 355 354 358 6 12 13 12 13 14 16 18 20 24 27 28 25 21 17 16 16 17 17 15 14 15 19 22 24 23 21 20 22 25 28 30 32 33 35 39 43 47 49 51 52 52 52 51 48
12 10 9 8 6 4 1 360 358 357 357 357 357 358 359 1 2 1 360 359 358 357 357 1 8 13 15 15 16 17 19 22 28 33 35 34 29 23 19 17 18 19 19 17 17 17 19 22 24 24 22 20 19 20 23 26 28 30 33 36 40 43 44 46 48 50 51 51 49
Height
1546 1544 1542 1541 1539 1537 1536 1534 1533 1531 1530 1528 1526 1524 1522 1521 1519 1517 1516 1514 1513 1511 1509 1508 1506 1505 1503 1502 1500 1499 1497 1495 1494 1492 1491 1490 1488 1486 1485 1483 1482 1480 1479 1477 1476 1475 1474 1472 1471 1470 1469 1468 1467 1466 1466 1465 1464 1463 1462 1462 1461 1460 1459 1459 1458 1457 1456 1455 1454
1545 1543 1542 1540 1539 1537 1535 1534 1532 1531 1529 1527 1526 1524 1522 1520 1518 1517 1515 1514 1512 1511 1509 1507 1506 1504 1502 1501 1499 1498 1496 1494 1492 1491 1490 1489 1487 1486 1484 1482 1481 1480 1478 1477 1475 1474 1473 1471 1470 1469 1468 1467 1466 1465 1464 1464 1463 1462 1461 1461 1460 1459 1458 1458 1457 1456 1454 1453 1452
1544 1542 1541 1539 1538 1536 1534 1533 1531 1530 1528 1527 1525 1523 1521 1520 1518 1516 1515 1513 1512 1510 1508 1506 1505 1503 1502 1500 1498 1497 1495 1493 1492 1490 1489 1487 1486 1485 1483 1481 1480 1479 1477 1476 1475 1473 1472 1471 1469 1468 1467 1466 1465 1464 1463 1462 1462 1461 1460 1459 1459 1458 1457 1456 1455 1454 1452 1451 1451
1543 1541 1540 1538 1537 1535 1534 1532 1531 1529 1527 1526 1524 1523 1521 1519 1518 1516 1514 1512 1511 1509 1508 1506 1504 1502 1501 1499 1497 1496 1494 1493 1491 1490 1488 1486 1485 1484 1482 1481 1479 1478 1476 1475 1474 1472 1471 1470 1468 1467 1466 1464 1463 1462 1462 1461 1461 1460 1459 1458 1457 1457 1456 1455 1453 1452 1451 1450 1450
1542 1541 1539 1538 1536 1535 1533 1531 1530 1528 1527 1525 1524 1522 1521 1519 1517 1515 1513 1512 1510 1509 1507 1505 1504 1502 1500 1498 1496 1495 1493 1492 1491 1489 1487 1485 1484 1483 1481 1480 1478 1477 1475 1474 1473 1471 1470 1469 1467 1466 1465 1464 1462 1462 1461 1461 1460 1459 1458 1457 1456 1455 1454 1453 1451 1451 1450 1449 1448
1541 1540 1538 1537 1536 1534 1532 1531 1529 1528 1526 1525 1523 1521 1520 1518 1516 1515 1513 1511 1510 1508 1506 1505 1503 1501 1499 1497 1496 1494 1492 1491 1489 1488 1486 1485 1483 1482 1480 1479 1477 1476 1475 1473 1472 1471 1469 1468 1466 1465 1464 1463 1462 1461 1460 1459 1458 1457 1456 1455 1454 1453 1452 1451 1450 1449 1448 1447 1447
1541 1539 1537 1536 1535 1533 1531 1530 1528 1527 1525 1524 1522 1521 1519 1517 1515 1514 1512 1510 1509 1507 1505 1503 1501 1500 1498 1496 1495 1493 1491 1490 1488 1487 1485 1484 1482 1481 1479 1478 1476 1475 1474 1472 1471 1470 1468 1467 1466 1464 1463 1462 1461 1460 1459 1458 1457 1456 1454 1453 1451 1451 1450 1449 1448 1447 1446 1446 1446
1540 1538 1537 1535 1534 1532 1531 1529 1527 1526 1524 1523 1521 1519 1518 1516 1514 1512 1511 1509 1507 1506 1504 1502 1501 1499 1497 1496 1494 1492 1491 1489 1487 1486 1484 1483 1481 1480 1478 1477 1476 1474 1473 1471 1470 1468 1467 1466 1465 1463 1462 1461 1460 1459 1457 1456 1455 1454 1452 1451 1449 1449 1448 1447 1446 1446 1445 1445 1444
1539 1537 1536 1534 1533 1531 1530 1528 1526 1525 1523 1521 1520 1518 1516 1515 1513 1511 1509 1507 1506 1504 1503 1501 1499 1498 1496 1495 1493 1492 1490 1488 1487 1485 1483 1482 1481 1479 1477 1476 1474 1473 1471 1470 1469 1467 1466 1465 1464 1462 1461 1460 1459 1457 1456 1454 1453 1451 1450 1449 1448 1447 1446 1446 1445 1444 1444 1443 1443
1537 1536 1535 1533 1531 1530 1528 1527 1525 1524 1522 1520 1518 1517 1515 1513 1511 1510 1508 1506 1505 1503 1501 1500 1498 1497 1495 1494 1492 1491 1489 1488 1486 1484 1483 1481 1480 1478 1476 1475 1474 1472 1471 1469 1468 1466 1465 1464 1462 1461 1460 1459 1457 1456 1454 1452 1451 1450 1448 1447 1446 1445 1444 1444 1443 1443 1443 1442 1442
1536 1535 1534 1532 1531 1529 1527 1526 1524 1522 1521 1519 1517 1515 1513 1511 1510 1508 1506 1505 1503 1501 1500 1499 1497 1496 1494 1493 1491 1490 1488 1487 1485 1484 1482 1480 1479 1477 1476 1475 1473 1471 1470 1468 1467 1466 1464 1463 1461 1460 1458 1457 1455 1453 1452 1450 1449 1448 1446 1446 1445 1444 1443 1442 1442 1442 1442 1441 1441
1536 1534 1533 1531 1530 1528 1526 1524 1522 1521 1519 1517 1515 1513 1511 1510 1508 1507 1505 1504 1502 1500 1499 1498 1496 1495 1493 1492 1491 1489 1487 1486 1484 1483 1481 1480 1478 1477 1475 1474 1472 1471 1469 1468 1466 1465 1464 1462 1460 1458 1456 1455 1453 1451 1450 1449 1447 1446 1445 1444 1443 1442 1442 1441 1441 1441 1441 1441 1440
1535 1534 1532 1530 1529 1527 1525 1523 1521 1519 1517 1515 1514 1512 1510 1509 1507 1506 1504 1502 1501 1499 1498 1496 1495 1494 1492 1491 1489 1488 1486 1485 1483 1482 1481 1479 1477 1476 1474 1473 1471 1470 1468 1467 1466 1464 1463 1461 1460 1457 1455 1453 1451 1450 1448 1447 1446 1445 1443 1443 1442 1441 1441 1441 1441 1441 1440 1440 1439
1535 1533 1531 1529 1527 1526 1524 1521 1519 1517 1516 1514 1512 1511 1509 1508 1506 1505 1503 1502 1500 1499 1497 1496 1494 1493 1491 1490 1488 1487 1485 1484 1482 1481 1480 1478 1477 1475 1474 1472 1470 1469 1467 1466 1464 1463 1462 1460 1459 1457 1455 1452 1450 1448 1447 1446 1445 1444 1443 1442 1441 1441 1440 1440 1440 1440 1439 1438 1438
1534 1532 1530 1528 1526 1525 1522 1520 1518 1516 1515 1513 1512 1510 1509 1507 1506 1504 1503 1501 1500 1498 1496 1495 1493 1492 1491 1489 1487 1486 1484 1482 1481 1480 1478 1477 1476 1474 1473 1471 1469 1467 1466 1465 1463 1462 1461 1459 1458 1456 1454 1451 1449 1446 1445 1444 1444 1443 1442 1442 1441 1440 1440 1440 1439 1439 1438 1437 1437
1533 1531 1529 1527 1525 1523 1521 1520 1518 1516 1514 1513 1511 1510 1508 1506 1505 1504 1502 1501 1499 1497 1496 1494 1493 1491 1489 1488 1486 1484 1483 1481 1480 1479 1477 1476 1475 1473 1471 1470 1468 1466 1465 1463 1461 1461 1459 1458 1457 1456 1453 1451 1448 1446 1444 1443 1443 1443 1442 1441 1441 1440 1439 1439 1438 1438 1437 1436 1436
1531 1530 1528 1526 1524 1522 1520 1519 1517 1516 1514 1512 1511 1509 1507 1506 1505 1503 1502 1501 1499 1497 1495 1494 1492 1490 1488 1486 1485 1483 1481 1480 1479 1477 1476 1475 1473 1472 1470 1468 1466 1465 1463 1462 1460 1459 1458 1457 1456 1454 1451 1449 1447 1446 1444 1443 1443 1442 1442 1441 1440 1440 1439 1438 1437 1437 1436 1436 1435
1530 1528 1526 1525 1523 1521 1520 1518 1517 1515 1513 1512 1510 1509 1507 1506 1505 1503 1501 1500 1498 1496 1495 1492 1491 1489 1487 1486 1484 1482 1481 1479 1477 1476 1475 1474 1472 1470 1468 1467 1465 1463 1462 1461 1459 1458 1456 1455 1454 1452 1449 1447 1446 1445 1444 1443 1443 1442 1441 1440 1439 1439 1438 1437 1436 1436 1436 1435 1434
1529 1527 1526 1524 1522 1521 1519 1518 1516 1515 1513 1511 1510 1508 1507 1506 1504 1503 1501 1499 1498 1496 1494 1492 1490 1488 1486 1485 1483 1481 1480 1478 1477 1475 1474 1472 1470 1469 1467 1466 1464 1462 1461 1459 1458 1457 1456 1454 1452 1450 1447 1446 1445 1444 1444 1443 1442 1441 1440 1439 1438 1438 1437 1436 1436 1435 1435 1434 1433
1528 1527 1525 1523 1522 1520 1519 1517 1516 1514 1512 1511 1510 1508 1507 1506 1504 1502 1501 1499 1497 1496 1493 1491 1490 1488 1486 1484 1482 1481 1479 1477 1476 1474 1472 1471 1469 1468 1466 1464 1462 1461 1460 1458 1457 1456 1454 1453 1451 1448 1446 1445 1445 1444 1443 1442 1441 1441 1440 1439 1438 1437 1436 1436 1435 1435 1434 1433 1432
1528 1526 1525 1523 1521 1520 1518 1517 1515 1514 1512 1511 1509 1508 1507 1505 1504 1502 1500 1498 1496 1495 1493 1491 1489 1487 1485 1483 1482 1480 1478 1477 1475 1473 1471 1470 1468 1466 1465 1463 1461 1460 1458 1457 1456 1455 1453 1451 1449 1447 1445 1445 1445 1444 1443 1441 1441 1440 1439 1438 1437 1436 1436 1435 1435 1434 1433 1432 1431
1528 1526 1525 1523 1521 1520 1518 1516 1515 1513 1512 1511 1509 1508 1506 1505 1503 1501 1500 1498 1496 1494 1492 1491 1488 1487 1485 1483 1481 1480 1478 1476 1474 1473 1471 1469 1467 1466 1464 1462 1461 1459 1457 1456 1455 1453 1452 1450 1448 1446 1445 1446 1446 1444 1442 1441 1440 1439 1439 1438 1437 1436 1435 1435 1434 1433 1432 1431 1431
1527 1526 1524 1522 1521 1519 1517 1516 1514 1513 1512 1510 1509 1507 1506 1505 1503 1501 1499 1497 1496 1494 1492 1490 1488 1486 1485 1483 1481 1479 1477 1476 1473 1471 1470 1468 1466 1465 1463 1461 1460 1458 1456 1455 1454 1452 1451 1449 1447 1446 1446 1446 1445 1443 1441 1440 1439 1439 1438 1437 1436 1435 1434 1433 1432 1431 1431 1431 1430
1527 1525 1524 1522 1520 1519 1517 1516 1514 1513 1511 1510 1509 1507 1506 1504 1502 1501 1499 1497 1495 1493 1491 1490 1488 1486 1484 1483 1481 1479 1477 1475 1473 1471 1469 1467 1466 1464 1462 1461 1459 1457 1456 1454 1453 1452 1451 1449 1447 1446 1446 1446 1445 1442 1441 1440 1439 1438 1437 1436 1435 1434 1433 1432 1431 1431 1431 1430 1429
1526 1525 1523 1521 1520 1518 1516 1515 1514 1512 1511 1510 1509 1507 1506 1504 1502 1500 1498 1496 1495 1493 1491 1489 1487 1486 1484 1482 1481 1479 1477 1475 1472 1470 1468 1466 1465 1463 1461 1460 1458 1456 1455 1454 1453 1452 1451 1450 1448 1447 1447 1446 1443 1441 1440 1439 1438 1437 1436 1435 1434 1433 1432 1431 1431 1431 1430 1429 1429
1526 1524 1522 1521 1519 1518 1516 1515 1514 1512 1511 1510 1508 1507 1505 1503 1501 1500 1498 1496 1494 1492 1491 1489 1487 1486 1484 1482 1480 1478 1476 1474 1472 1470 1468 1466 1464 1463 1461 1459 1458 1456 1455 1453 1453 1452 1451 1450 1448 1447 1446 1445 1442 1440 1439 1439 1437 1436 1436 1435 1434 1432 1431 1430 1430 1430 1429 1429 1428
1525 1523 1522 1521 1519 1517 1516 1515 1514 1512 1511 1510 1508 1506 1505 1503 1501 1500 1498 1496 1494 1492 1491 1489 1487 1486 1484 1482 1480 1477 1476 1474 1472 1470 1468 1466 1464 1462 1461 1459 1457 1456 1454 1453 1453 1453 1451 1449 1447 1446 1444 1443 1440 1439 1438 1438 1437 1436 1435 1434 1433 1432 1431 1430 1430 1430 1429 1429 1428
1525 1523 1522 1520 1519 1517 1516 1515 1513 1512 1511 1509 1508 1506 1505 1503 1501 1500 1498 1496 1494 1492 1491 1489 1487 1486 1484 1481 1479 1477 1475 1473 1471 1470 1468 1466 1464 1462 1460 1459 1457 1456 1454 1454 1453 1453 1452 1450 1447 1445 1444 1442 1439 1438 1438 1437 1436 1435 1435 1434 1432 1431 1430 1430 1430 1430 1430 1429 1429
1525 1523 1521 1520 1519 1517 1516 1515 1513 1512 1511 1509 1508 1506 1504 1503 1501 1500 1498 1496 1494 1492 1491 1489 1487 1486 1484 1481 1479 1477 1475 1473 1471 1470 1468 1466 1464 1462 1460 1459 1457 1456 1454 1453 1453 1452 1451 1450 1448 1446 1444 1441 1439 1438 1437 1437 1436 1435 1434 1433 1432 1431 1430 1430 1430 1430 1430 1430 1429
1525 1523 1521 1520 1519 1517 1516 1515 1513 1512 1511 1509 1507 1506 1504 1503 1501 1499 1498 1496 1494 1493 1491 1490 1488 1486 1484 1481 1479 1477 1475 1473 1471 1469 1467 1466 1464 1462 1461 1459 1457 1456 1454 1453 1452 1452 1451 1449 1447 1446 1443 1441 1439 1438 1437 1437 1436 1436 1435 1433 1432 1431 1431 1431 1431 1431 1431 1430 1430
1525 1523 1521 1520 1519 1517 1516 1515 1513 1512 1511 1509 1507 1506 1504 1503 1501 1500 1498 1496 1495 1493 1492 1490 1488 1486 1484 1482 1480 1477 1475 1473 1471 1469 1467 1466 1464 1462 1461 1459 1457 1456 1454 1453 1453 1451 1450 1449 1446 1444 1442 1441 1440 1439 1438 1437 1437 1436 1435 1433 1432 1431 1431 1432 1432 1431 1431 1431 1430
1525 1523 1522 1521 1519 1518 1516 1515 1514 1512 1511 1509 1508 1506 1505 1503 1502 1500 1498 1496 1495 1493 1491 1490 1488 1486 1484 1482 1480 1477 1475 1473 1471 1470 1468 1466 1464 1462 1461 1459 1457 1456 1455 1454 1453 1451 1450 1448 1445 1443 1442 1441 1440 1439 1439 1438 1437 1436 1435 1434 1433 1432 1432 1432 1432 1432 1432 1432 1431
1525 1523 1522 1521 1520 1518 1517 1515 1514 1512 1511 1509 1508 1506 1505 1504 1502 1500 1499 1497 1495 1493 1491 1490 1488 1486 1484 1482 1480 1478 1475 1473 1471 1470 1468 1466 1464 1463 1461 1460 1458 1456 1455 1454 1452 1452 1450 1447 1445 1444 1443 1442 1441 1440 1439 1439 1438 1437 1436 1435 1434 1433 1432 1433 1433 1433 1433 1433 1432
1525 1524 1522 1521 1520 1518 1517 1516 1514 1513 1511 1510 1508 1507 1505 1504 1502 1500 1499 1497 1495 1494 1492 1490 1488 1486 1485 1483 1481 1478 1476 1474 1472 1470 1468 1466 1465 1463 1461 1460 1459 1457 1456 1454 1453 1452 1450 1447 1446 1445 1444 1443 1441 1441 1440 1439 1439 1438 1437 1436 1435 1434 1433 1433 1433 1434 1434 1434 1433
1525 1524 1523 1521 1520 1519 1517 1516 1514 1513 1511 1510 1508 1507 1506 1504 1502 1501 1499 1497 1496 1494 1492 1490 1488 1487 1485 1483 1481 1479 1476 1474 1472 1471 1469 1467 1465 1463 1462 1461 1460 1458 1456 1454 1455 1453 1450 1447 1446 1446 1445 1443 1442 1441 1441 1440 1439 1439 1438 1437 1436 1435 1434 1433 1433 1434 1435 1435 1435
1526 1524 1523 1521 1520 1519 1517 1516 1515 1513 1512 1510 1509 1507 1506 1504 1503 1501 1500 1498 1496 1494 1492 1490 1489 1487 1485 1482 1481 1479 1477 1475 1473 1471 1469 1467 1466 1464 1463 1462 1460 1458 1456 1455 1456 1453 1450 1448 1447 1446 1445 1444 1443 1442 1441 1441 1440 1440 1439 1438 1437 1436 1435 1434 1433 1433 1434 1435 1435
1526 1524 1523 1521 1520 1519 1517 1516 1515 1514 1512 1511 1509 1507 1506 1504 1503 1501 1500 1498 1496 1494 1492 1491 1489 1487 1485 1483 1481 1480 1478 1476 1474 1472 1470 1468 1467 1466 1464 1463 1461 1458 1456 1456 1456 1454 1451 1449 1448 1446 1446 1445 1444 1443 1442 1442 1441 1441 1440 1439 1438 1437 1436 1435 1435 1434 1433 1434 1435
1526 1525 1523 1522 1521 1519 1518 1516 1515 1514 1512 1511 1509 1508 1506 1505 1503 1502 1500 1498 1496 1494 1492 1491 1490 1488 1486 1484 1482 1481 1479 1477 1476 1473 1471 1469 1468 1467 1466 1464 1462 1459 1458 1457 1455 1454 1453 1451 1449 1447 1446 1445 1445 1444 1443 1443 1442 1442 1441 1441 1440 1439 1438 1437 1436 1435 1434 1434 1435
1526 1525 1524 1522 1521 1520 1518 1517 1516 1514 1513 1511 1510 1508 1506 1505 1504 1502 1501 1499 1497 1495 1493 1492 1491 1489 1486 1485 1483 1482 1480 1478 1476 1475 1472 1471 1469 1468 1467 1465 1463 1461 1460 1458 1457 1455 1454 1452 1451 1449 1447 1446 1446 1445 1444 1444 1443 1442 1442 1441 1441 1440 1440 1439 1438 1437 1436 1435 1435
1527 1526 1524 1523 1521 1520 1519 1517 1516 1514 1513 1511 1510 1508 1507 1506 1504 1503 1501 1499 1497 1496 1494 1492 1491 1489 1487 1486 1484 1482 1481 1479 1477 1476 1474 1472 1471 1470 1468 1466 1465 1463 1462 1461 1459 1457 1455 1454 1452 1451 1449 1447 1447 1446 1445 1445 1444 1443 1443 1442 1441 1441 1441 1440 1439 1438 1437 1436 1435
1527 1526 1525 1524 1522 1521 1519 1517 1516 1515 1513 1512 1511 1509 1507 1506 1505 1503 1501 1500 1498 1496 1494 1493 1492 1490 1488 1486 1485 1483 1482 1480 1478 1477 1475 1474 1473 1471 1470 1468 1466 1465 1464 1463 1461 1460 1458 1456 1454 1453 1451 1449 1448 1447 1446 1446 1445 1444 1444 1443 1442 1442 1441 1441 1440 1439 1438 1437 1436